Weather in Lipkani

Moldova     48°16′10″N   26°48′00″E
temp.,
°C
wind,
m/s
gust,
m/s
humid.,
%
clouds,
%
prec.,
mm/h
press.,
hPa
HPBL,
m
12 april, mon
mon1200:00+7se355130 0.0 102571
03:00+6se34556 0.0 102460
06:00+5se33594 0.0 102428
09:00+9se35480 0.0 1023255
12:00+14se44340 0.0 1022945
15:00+17sse33305 0.0 10201272
18:00+17se22310 0.0 10201148
21:00+12sse22440 0.0 102016
13 april, tue
tue1300:00+10se22481 0.0 102011
03:00+9se11522 0.0 102010
06:00+8e11585 0.0 102010
09:00+12se124970 0.0 1020210
12:00+16ese223894 0.0 10181074
15:00+18ese2232100 0.0 10161856
18:00+17ese4338100 0.0 10151279
21:00+11ese51072100 0.0 1016347
14 april, wed
wed1400:00+9ese3783100 0.0 1016217
03:00+9ese2384100 0.0 101571
06:00+8ese3688100 0.1 1014215
09:00+10se347193 0.1 1014485
12:00+12sse456299 0.0 10141062
15:00+13sw4458100 0.0 10131151
18:00+9wnw6773100 0.0 1014487
21:00+6wnw6981100 0.0 1015374
15 april, thu
thu1500:00+5nw6989100 1.2 1015425
03:00+4nw6993100 2.6 1015399
06:00+4nw61091100 0.1 1015403
09:00+3nw61094100 1.8 1016406
12:00+3nw61096100 1.5 1017435
15:00+3nw5996100 2.8 1017548
18:00+3nw61096100 1.6 1018590
21:00+3nw61197100 3.0 1018565
16 april, fri
fri1600:00+3nw61197100 0.3 1018523
03:00+3nw61197100 0.4 1018578
06:00+2nw61297100 0.1 1018608
09:00+3nw71185100 0.1 1019708
12:00+5nw81074100 0.0 1019909
15:00+7nw81065100 0.0 10191155
18:00+8nnw7106670 0.0 10191175
21:00+5nw6127537 0.0 1021589